BIPCOM Weather Reports


Display with metric or nautical units.
time (UTC)temp
F
wind
direction
speed
MPH
gust
MPH
rain 1hr
in
rain 24hr
in
rain mn
in
humidity
%
barometer
mb
20260510174603 55 37 23.0 26.0 0.00 0.00 0.00 71 1011.6
20260510174044 55 42 19.0 24.0 0.00 0.00 0.00 72 1011.5
20260510173526 55 48 21.0 24.0 0.00 0.00 0.00 72 1011.5
20260510173012 55 61 19.0 24.0 0.00 0.00 0.00 72 1011.5
20260510172502 55 34 18.0 25.0 0.00 0.00 0.00 71 1011.6
20260510172054 55 42 22.0 25.0 0.00 0.00 0.00 72 1011.6
20260510171549 55 45 19.0 25.0 0.00 0.00 0.00 72 1011.7
20260510171033 55 54 18.0 22.0 0.00 0.00 0.00 73 1011.7
20260510170529 55 43 19.0 24.0 0.00 0.00 0.00 72 1011.7
20260510170013 55 44 21.0 24.0 0.00 0.00 0.00 73 1011.7
20260510165505 55 38 20.0 24.0 0.00 0.00 0.00 73 1011.8
20260510165055 55 40 18.0 25.0 0.00 0.00 0.00 73 1011.8
20260510164602 55 36 21.0 25.0 0.00 0.00 0.00 73 1011.8
20260510164034 55 40 21.0 27.0 0.00 0.00 0.00 73 1011.8
20260510163514 55 47 23.0 27.0 0.00 0.00 0.00 73 1011.8
20260510163005 55 36 23.0 28.0 0.00 0.00 0.00 73 1011.8
20260510162555 55 41 22.0 28.0 0.00 0.00 0.00 74 1011.8
20260510162045 55 37 23.0 28.0 0.00 0.00 0.00 74 1012.0
20260510161538 55 39 23.0 27.0 0.00 0.00 0.00 73 1012.0
20260510161025 55 45 22.0 28.0 0.00 0.00 0.00 74 1012.0
20260510160515 55 42 25.0 28.0 0.00 0.00 0.00 74 1012.0
20260510160005 55 34 23.0 27.0 0.00 0.00 0.00 74 1012.0
20260510155557 55 46 20.0 24.0 0.00 0.00 0.00 74 1012.1
20260510155046 55 51 20.0 27.0 0.00 0.00 0.00 74 1012.2
20260510154536 55 41 20.0 26.0 0.00 0.00 0.00 73 1012.2
20260510154025 55 45 22.0 29.0 0.00 0.00 0.00 74 1012.2
20260510153504 55 52 23.0 27.0 0.00 0.00 0.00 74 1012.1
20260510153104 55 42 20.0 26.0 0.00 0.00 0.00 74 1012.2
20260510152548 55 47 19.0 25.0 0.00 0.00 0.00 74 1012.2
20260510152037 55 65 19.0 25.0 0.00 0.00 0.00 73 1012.2
20260510151526 55 61 19.0 25.0 0.00 0.00 0.00 74 1012.3
20260510151016 56 52 21.0 27.0 0.00 0.00 0.00 74 1012.3
20260510150510 56 55 20.0 25.0 0.00 0.00 0.00 74 1012.2
20260510145547 56 44 20.0 24.0 0.00 0.00 0.00 74 1012.4
20260510145037 56 55 20.0 25.0 0.00 0.00 0.00 73 1012.4
20260510144531 56 44 20.0 26.0 0.00 0.00 0.00 74 1012.4
20260510144006 56 34 22.0 28.0 0.00 0.00 0.00 74 1012.4
20260510143558 56 40 22.0 28.0 0.00 0.00 0.00 74 1012.4
20260510143101 56 38 23.0 28.0 0.00 0.00 0.00 73 1012.5
20260510142537 56 48 22.0 28.0 0.00 0.00 0.00 72 1012.5
20260510142028 56 42 21.0 26.0 0.00 0.00 0.00 74 1012.5
20260510141518 56 46 20.0 25.0 0.00 0.00 0.00 72 1012.5
20260510141008 56 46 21.0 25.0 0.00 0.00 0.00 73 1012.5
20260510140559 56 34 22.0 29.0 0.00 0.00 0.00 72 1012.6
20260510140049 56 36 22.0 29.0 0.00 0.00 0.00 72 1012.7
20260510135538 56 47 22.0 28.0 0.00 0.00 0.00 73 1012.7
20260510135028 56 38 23.0 28.0 0.00 0.00 0.00 73 1012.7
20260510134518 56 45 22.0 25.0 0.00 0.00 0.00 74 1012.7
20260510134109 56 38 23.0 25.0 0.00 0.00 0.00 74 1012.7
20260510133549 55 49 20.0 23.0 0.00 0.00 0.00 76 1012.7
20260510133038 55 48 15.0 22.0 0.00 0.00 0.00 77 1012.7
20260510132531 55 45 17.0 22.0 0.00 0.00 0.00 77 1012.8
20260510132019 55 53 19.0 23.0 0.00 0.00 0.00 76 1012.8
20260510131516 55 49 19.0 23.0 0.00 0.00 0.00 75 1012.9
20260510131059 55 48 20.0 23.0 0.00 0.00 0.00 76 1012.9
20260510130554 55 55 20.0 23.0 0.00 0.00 0.00 77 1013.0
20260510130039 55 57 19.0 23.0 0.00 0.00 0.00 75 1013.1
20260510125529 55 53 20.0 26.0 0.00 0.00 0.00 74 1013.1
20260510125018 55 61 21.0 26.0 0.00 0.00 0.00 74 1013.3
20260510124514 55 55 20.0 26.0 0.00 0.00 0.00 73 1013.3
20260510124101 55 57 19.0 25.0 0.00 0.00 0.00 74 1013.3
20260510123539 55 62 20.0 25.0 0.00 0.00 0.00 72 1013.4
20260510123030 55 57 21.0 25.0 0.00 0.00 0.00 73 1013.5
20260510122519 55 77 20.0 26.0 0.00 0.00 0.00 71 1013.5
20260510122008 55 63 20.0 24.0 0.00 0.00 0.00 72 1013.6
20260510121601 55 59 19.0 24.0 0.00 0.00 0.00 72 1013.6
20260510121050 55 40 20.0 26.0 0.00 0.00 0.00 72 1013.7
20260510120540 55 57 22.0 27.0 0.00 0.00 0.00 73 1013.7
20260510120034 55 63 22.0 27.0 0.00 0.00 0.00 71 1013.7
20260510115520 55 69 22.0 27.0 0.00 0.00 0.00 73 1013.8
20260510115013 55 70 22.0 28.0 0.00 0.00 0.00 72 1013.9
20260510114604 55 63 21.0 28.0 0.00 0.00 0.00 72 1013.9
20260510114052 55 65 24.0 29.0 0.00 0.00 0.00 72 1013.9
20260510113530 55 70 24.0 29.0 0.00 0.00 0.00 72 1014.0
20260510113020 55 51 24.0 30.0 0.00 0.00 0.00 72 1014.1
20260510112514 55 59 25.0 30.0 0.00 0.00 0.00 71 1014.1
20260510112102 55 62 23.0 28.0 0.00 0.00 0.00 72 1014.1
20260510111552 55 49 22.0 27.0 0.00 0.00 0.00 73 1014.1
20260510111041 55 45 23.0 26.0 0.00 0.00 0.00 74 1014.1
20260510110534 55 55 18.0 26.0 0.00 0.00 0.00 74 1014.2
20260510110026 55 35 23.0 29.0 0.00 0.00 0.00 73 1014.1
20260510105509 55 53 23.0 29.0 0.00 0.00 0.00 73 1014.1
20260510105103 55 60 23.0 28.0 0.00 0.00 0.00 73 1014.2
20260510104553 55 50 22.0 26.0 0.00 0.00 0.00 74 1014.2
20260510104028 54 39 21.0 27.0 0.00 0.00 0.00 74 1014.1
20260510103519 54 51 22.0 27.0 0.00 0.00 0.00 74 1014.1
20260510103008 54 49 20.0 25.0 0.00 0.00 0.00 75 1014.2
20260510102559 54 48 20.0 28.0 0.00 0.00 0.00 76 1014.1
20260510102050 54 43 24.0 30.0 0.00 0.00 0.00 75 1014.2
20260510101542 54 47 23.0 29.0 0.00 0.00 0.00 75 1014.3
20260510101030 54 44 24.0 29.0 0.00 0.00 0.00 76 1014.2
20260510100522 54 45 24.0 29.0 0.00 0.00 0.00 75 1014.2
20260510100015 54 42 23.0 29.0 0.00 0.00 0.00 75 1014.4
20260510095600 54 34 23.0 30.0 0.00 0.00 0.00 76 1014.3
20260510095052 54 30 26.0 30.0 0.00 0.00 0.00 75 1014.4
20260510094552 53 50 24.0 30.0 0.00 0.00 0.00 75 1014.4
20260510094018 53 50 26.0 30.0 0.00 0.00 0.00 76 1014.5
20260510093508 53 44 25.0 29.0 0.00 0.00 0.00 77 1014.4
20260510093103 53 29 26.0 30.0 0.00 0.00 0.00 76 1014.3
20260510092552 53 32 25.0 30.0 0.00 0.00 0.00 76 1014.3
20260510092043 53 38 22.0 29.0 0.00 0.00 0.00 78 1014.4
20260510091530 53 39 24.0 30.0 0.00 0.00 0.00 78 1014.4
20260510091020 53 38 26.0 30.0 0.00 0.00 0.00 77 1014.5
20260510090510 53 33 24.0 29.0 0.00 0.00 0.00 78 1014.5
20260510090104 53 36 26.0 30.0 0.00 0.00 0.00 78 1014.5
20260510085552 52 32 26.0 31.0 0.00 0.00 0.00 78 1014.5
20260510085042 52 30 27.0 31.0 0.00 0.00 0.00 79 1014.5
20260510084531 52 41 26.0 31.0 0.00 0.00 0.00 80 1014.4
20260510084011 52 30 25.0 32.0 0.00 0.00 0.00 80 1014.5
20260510083601 52 36 27.0 33.0 0.00 0.00 0.00 79 1014.5
20260510083052 52 36 27.0 33.0 0.00 0.00 0.00 80 1014.4
20260510082541 52 36 25.0 32.0 0.00 0.00 0.00 79 1014.4
20260510082031 52 30 26.0 30.0 0.00 0.00 0.00 80 1014.4
20260510081521 52 40 26.0 30.0 0.00 0.00 0.00 79 1014.5
20260510081013 52 38 24.0 30.0 0.00 0.00 0.00 80 1014.5
20260510080502 52 35 25.0 30.0 0.00 0.00 0.00 81 1014.4
20260510080052 52 29 25.0 30.0 0.00 0.00 0.00 81 1014.4
20260510075542 52 35 26.0 30.0 0.00 0.00 0.00 80 1014.5
20260510075032 52 28 26.0 32.0 0.00 0.00 0.00 81 1014.4
20260510074522 51 44 27.0 32.0 0.00 0.00 0.00 81 1014.4
20260510074000 52 43 26.0 30.0 0.00 0.00 0.00 81 1014.4
20260510073552 51 31 25.0 30.0 0.00 0.00 0.00 81 1014.4
20260510073042 51 37 24.0 30.0 0.00 0.00 0.00 82 1014.4
20260510072533 51 40 25.0 31.0 0.00 0.00 0.00 82 1014.4
20260510072022 51 43 26.0 31.0 0.00 0.00 0.00 81 1014.4
20260510071512 51 40 24.0 31.0 0.00 0.00 0.00 82 1014.4
20260510071002 51 29 27.0 31.0 0.00 0.00 0.00 81 1014.4
20260510070554 51 34 25.0 31.0 0.00 0.00 0.00 82 1014.3
20260510070047 51 36 24.0 30.0 0.00 0.00 0.00 82 1014.3
20260510065534 51 38 25.0 30.0 0.00 0.00 0.00 81 1014.3
20260510065024 51 36 24.0 29.0 0.00 0.00 0.00 82 1014.3
20260510064519 51 27 23.0 29.0 0.00 0.00 0.00 82 1014.4
20260510064107 51 49 24.0 28.0 0.00 0.00 0.00 81 1014.5
20260510063544 51 34 24.0 30.0 0.00 0.00 0.00 82 1014.4
20260510063036 51 26 25.0 29.0 0.00 0.00 0.00 81 1014.4
20260510062523 51 34 25.0 29.0 0.00 0.00 0.00 80 1014.3
20260510062019 51 28 24.0 29.0 0.00 0.00 0.00 81 1014.4
20260510061504 51 37 25.0 29.0 0.00 0.00 0.00 81 1014.4
20260510061058 51 38 24.0 29.0 0.00 0.00 0.00 81 1014.4
20260510060546 51 33 24.0 29.0 0.00 0.00 0.00 82 1014.3
20260510060034 51 26 24.0 28.0 0.00 0.00 0.00 81 1014.3
20260510055525 51 32 24.0 29.0 0.00 0.00 0.00 82 1014.3
20260510055012 51 15 23.0 29.0 0.00 0.00 0.00 83 1014.2
20260510054502 51 21 24.0 29.0 0.00 0.00 0.00 83 1014.2
20260510054054 51 32 26.0 32.0 0.00 0.00 0.00 82 1014.1
20260510053533 51 19 27.0 32.0 0.00 0.00 0.00 82 1014.1
20260510053026 51 26 26.0 31.0 0.00 0.00 0.00 82 1014.1
20260510052512 51 24 26.0 30.0 0.00 0.00 0.00 82 1014.1
20260510052002 51 36 26.0 30.0 0.00 0.00 0.00 82 1014.0
20260510051554 51 28 26.0 32.0 0.00 0.00 0.00 82 1014.1
20260510051042 51 34 26.0 32.0 0.00 0.00 0.00 81 1014.1
20260510050533 52 24 26.0 30.0 0.00 0.00 0.00 81 1014.1
20260510050021 52 24 26.0 29.0 0.00 0.00 0.00 80 1014.1
20260510045514 52 15 24.0 28.0 0.00 0.00 0.00 80 1014.1
20260510045102 52 32 22.0 27.0 0.00 0.00 0.00 80 1014.1
20260510044557 52 18 24.0 27.0 0.00 0.00 0.00 78 1014.1
20260510044042 53 33 21.0 27.0 0.00 0.00 0.00 79 1014.2
20260510043521 53 32 24.0 27.0 0.00 0.00 0.00 79 1014.2
20260510043011 53 38 23.0 27.0 0.00 0.00 0.00 78 1014.2
20260510042605 53 32 23.0 27.0 0.00 0.00 0.00 77 1014.2
20260510042052 53 26 22.0 27.0 0.00 0.00 0.00 78 1014.1
20260510041542 53 41 23.0 26.0 0.00 0.00 0.00 77 1014.2
20260510041032 53 28 22.0 28.0 0.00 0.00 0.00 77 1014.3
20260510040522 53 42 23.0 29.0 0.00 0.00 0.00 76 1014.3
20260510040013 53 33 24.0 27.0 0.00 0.00 0.00 76 1014.3
20260510035502 53 38 23.0 27.0 0.00 0.00 0.00 75 1014.3
20260510035053 53 29 22.0 27.0 0.00 0.00 0.00 75 1014.5
20260510034547 53 30 23.0 27.0 0.00 0.00 0.00 74 1014.5
20260510034021 54 30 22.0 27.0 0.00 0.00 0.00 73 1014.5
20260510033510 53 29 22.0 27.0 0.00 0.00 0.00 71 1014.6
20260510033139 54 36 24.0 27.0 0.00 0.00 0.00 72 1014.6
20260510032553 54 37 21.0 28.0 0.00 0.00 0.00 72 1014.6
20260510032043 54 38 23.0 28.0 0.00 0.00 0.00 71 1014.6
20260510031533 54 32 24.0 28.0 0.00 0.00 0.00 70 1014.6
20260510031021 54 40 22.0 25.0 0.00 0.00 0.00 71 1014.6
20260510030511 54 34 21.0 25.0 0.00 0.00 0.00 70 1014.6
20260510025545 55 30 20.0 23.0 0.00 0.00 0.00 69 1014.7
20260510025033 55 25 20.0 23.0 0.00 0.00 0.00 69 1014.7
20260510024525 55 40 20.0 23.0 0.00 0.00 0.00 68 1014.8
20260510024001 55 39 17.0 21.0 0.00 0.00 0.00 70 1014.8
20260510023553 55 37 17.0 21.0 0.00 0.00 0.00 69 1014.8
20260510023043 55 42 18.0 21.0 0.00 0.00 0.00 68 1014.7
20260510022534 55 45 16.0 21.0 0.00 0.00 0.00 68 1014.6
20260510022022 55 42 18.0 23.0 0.00 0.00 0.00 67 1014.6
20260510021516 55 46 18.0 22.0 0.00 0.00 0.00 68 1014.6
20260510021002 56 44 17.0 21.0 0.00 0.00 0.00 68 1014.6
20260510020555 56 52 18.0 25.0 0.00 0.00 0.00 68 1014.7
20260510020047 56 59 18.0 26.0 0.00 0.00 0.00 68 1014.7
20260510015534 56 58 21.0 26.0 0.00 0.00 0.00 66 1014.7
20260510015024 56 55 20.0 23.0 0.00 0.00 0.00 66 1014.7
20260510014513 56 61 18.0 22.0 0.00 0.00 0.00 68 1014.7
20260510014105 56 55 18.0 22.0 0.00 0.00 0.00 67 1014.7
20260510013544 56 47 18.0 22.0 0.00 0.00 0.00 66 1014.6
20260510013033 56 46 17.0 22.0 0.00 0.00 0.00 68 1014.7
20260510012523 56 39 18.0 23.0 0.00 0.00 0.00 66 1014.7
20260510012017 56 39 20.0 23.0 0.00 0.00 0.00 65 1014.7
20260510011503 56 42 18.0 21.0 0.00 0.00 0.00 64 1014.7
20260510011054 56 32 16.0 21.0 0.00 0.00 0.00 64 1014.6
20260510010546 56 30 18.0 22.0 0.00 0.00 0.00 64 1014.5
20260510010035 56 30 19.0 22.0 0.00 0.00 0.00 64 1014.5
20260510005524 57 28 18.0 21.0 0.00 0.00 0.00 64 1014.6
20260510005015 57 31 17.0 21.0 0.00 0.00 0.00 66 1014.6
20260510004504 57 32 18.0 21.0 0.00 0.00 0.00 62 1014.6
20260510004056 57 47 18.0 21.0 0.00 0.00 0.00 63 1014.6
20260510003535 57 50 18.0 21.0 0.00 0.00 0.00 63 1014.6
20260510003026 57 43 18.0 22.0 0.00 0.00 0.00 64 1014.7
20260510002514 57 47 17.0 23.0 0.00 0.00 0.00 65 1014.7
20260510002005 57 44 17.0 21.0 0.00 0.00 0.00 63 1014.7
20260510001557 57 56 16.0 20.0 0.00 0.00 0.00 62 1014.7
20260510001046 57 48 17.0 20.0 0.00 0.00 0.00 60 1014.7
20260510000538 57 52 16.0 19.0 0.00 0.00 0.00 63 1014.7
20260510000051 57 53 16.0 19.0 0.00 0.00 0.00 64 1014.7
20260509235518 57 57 16.0 19.0 0.00 0.00 0.00 62 1014.7
20260509235006 57 54 15.0 20.0 0.00 0.00 0.00 63 1014.8
20260509234602 57 52 16.0 20.0 0.00 0.00 0.00 63 1014.7
20260509234048 57 55 16.0 20.0 0.00 0.00 0.00 64 1014.8
20260509233531 58 61 16.0 20.0 0.00 0.00 0.00 64 1014.7
20260509233017 58 59 15.0 18.0 0.00 0.00 0.00 63 1014.7
20260509232506 58 58 15.0 18.0 0.00 0.00 0.00 64 1014.8
20260509232058 58 55 14.0 19.0 0.00 0.00 0.00 64 1014.8
20260509231549 58 56 16.0 19.0 0.00 0.00 0.00 65 1014.8
20260509231038 58 51 16.0 19.0 0.00 0.00 0.00 66 1014.9
20260509230532 58 51 15.0 22.0 0.00 0.00 0.00 66 1014.9
20260509230017 58 51 17.0 23.0 0.00 0.00 0.00 66 1014.7
20260509225508 58 54 18.0 24.0 0.00 0.00 0.00 64 1014.7
20260509225058 58 61 19.0 24.0 0.00 0.00 0.00 65 1014.6
20260509224549 58 64 17.0 24.0 0.00 0.00 0.00 66 1014.5
20260509224039 58 56 20.0 25.0 0.00 0.00 0.00 66 1014.3
20260509223517 58 71 20.0 25.0 0.00 0.00 0.00 65 1014.3
20260509223008 58 67 21.0 25.0 0.00 0.00 0.00 65 1014.3
20260509222600 58 74 19.0 25.0 0.00 0.00 0.00 67 1014.2
20260509222049 58 69 16.0 22.0 0.00 0.00 0.00 68 1014.2
20260509221543 59 33 18.0 22.0 0.00 0.00 0.00 69 1014.2
20260509221029 59 65 14.0 22.0 0.00 0.00 0.00 68 1014.2
20260509220518 59 78 18.0 22.0 0.00 0.00 0.00 66 1014.2
20260509220009 59 67 16.0 20.0 0.00 0.00 0.00 67 1014.3
20260509215601 59 72 15.0 19.0 0.00 0.00 0.00 67 1014.3
20260509215051 59 66 16.0 19.0 0.00 0.00 0.00 68 1014.3
20260509214540 60 67 15.0 19.0 0.00 0.00 0.00 68 1014.3
20260509214030 59 64 16.0 19.0 0.00 0.00 0.00 68 1014.3
20260509213509 59 53 11.0 14.0 0.00 0.00 0.00 73 1014.3
20260509213101 59 47 7.0 14.0 0.00 0.00 0.00 75 1014.2
20260509212551 60 63 11.0 15.0 0.00 0.00 0.00 73 1014.2
20260509212040 60 63 13.0 15.0 0.00 0.00 0.00 72 1014.1
20260509211532 60 68 12.0 15.0 0.00 0.00 0.00 73 1014.2
20260509211021 59 63 9.0 12.0 0.00 0.00 0.00 74 1014.2
20260509210510 60 45 6.0 12.0 0.00 0.00 0.00 75 1014.1
20260509210108 60 37 9.0 12.0 0.00 0.00 0.00 75 1014.1
20260509205552 60 51 8.0 10.0 0.00 0.00 0.00 75 1014.1
20260509205042 60 45 7.0 12.0 0.00 0.00 0.00 74 1014.1
20260509204539 60 55 8.0 13.0 0.00 0.00 0.00 73 1014.0
20260509204012 60 59 10.0 13.0 0.00 0.00 0.00 72 1014.0
20260509203605 60 60 9.0 11.0 0.00 0.00 0.00 72 1013.9
20260509203052 61 61 9.0 11.0 0.00 0.00 0.00 71 1013.9
20260509202542 61 49 8.0 11.0 0.00 0.00 0.00 69 1013.7
20260509202031 61 40 8.0 11.0 0.00 0.00 0.00 69 1013.6
20260509201523 61 38 8.0 10.0 0.00 0.00 0.00 68 1013.5
20260509201012 62 31 9.0 11.0 0.00 0.00 0.00 68 1013.5
20260509200501 62 19 9.0 12.0 0.00 0.00 0.00 67 1013.5
20260509200106 62 19 9.0 12.0 0.00 0.00 0.00 68 1013.4
20260509195544 61 19 9.0 12.0 0.00 0.00 0.00 67 1013.3
20260509195035 61 14 8.0 11.0 0.00 0.00 0.00 67 1013.3
20260509194527 61 360 9.0 10.0 0.00 0.00 0.00 70 1013.3
20260509194003 61 21 8.0 10.0 0.00 0.00 0.00 69 1013.3
20260509193553 61 23 8.0 10.0 0.00 0.00 0.00 70 1013.2
20260509193043 62 24 6.0 8.0 0.00 0.00 0.00 68 1013.2
20260509192533 62 355 4.0 6.0 0.00 0.00 0.00 66 1013.2
20260509192023 62 346 3.0 5.0 0.00 0.00 0.00 65 1013.2
20260509191518 61 319 2.0 4.0 0.00 0.00 0.00 66 1013.3
20260509191003 61 319 1.0 4.0 0.00 0.00 0.00 66 1013.3
20260509190554 61 319 2.0 4.0 0.00 0.00 0.00 67 1013.2
20260509190044 61 319 2.0 5.0 0.00 0.00 0.00 67 1013.0
20260509185534 61 319 3.0 6.0 0.00 0.00 0.00 67 1013.0
20260509185023 61 319 4.0 6.0 0.00 0.00 0.00 67 1013.0
20260509184517 60 323 4.0 6.0 0.00 0.00 0.00 68 1013.1
20260509184109 60 320 3.0 5.0 0.00 0.00 0.00 69 1013.1
20260509183539 60 315 3.0 5.0 0.00 0.00 0.00 70 1013.2
20260509183032 60 315 3.0 5.0 0.00 0.00 0.00 71 1013.2
20260509182515 60 315 3.0 5.0 0.00 0.00 0.00 71 1013.2
20260509182008 60 315 2.0 4.0 0.00 0.00 0.00 71 1013.2
20260509181621 60 145 2.0 3.0 0.00 0.00 0.00 71 1013.2
20260509181047 60 145 1.0 2.0 0.00 0.00 0.00 70 1013.3
20260509180540 60 145 1.0 2.0 0.00 0.00 0.00 71 1013.4
20260509180026 60 145 0.0 5.0 0.00 0.00 0.00 70 1013.4
20260509175516 60 159 3.0 5.0 0.00 0.00 0.00 70 1013.4
20260509175008 60 333 0.0 5.0 0.00 0.00 0.00 71 1013.3